一网星座-0243星 (ONEWEB-0243 )

导读 | 星芒AI

ONEWEB-0243 是 OneWeb 卫星星座计划中的一颗低轨通信卫星,旨在为全球提供高速互联网服务。该卫星于2023年发射,运行在约1200公里高的近地轨道,采用先进通信技术,支持偏远地区和航空、航海等移动场景的网络连接。作为 OneWeb 扩展其全球覆盖战略的一部分,该卫星增强了系统的冗余性和服务能力,有助于实现公司为全球用户带来公平数字接入的愿景。

基本信息
目录编号:
48774
目录名称:
ONEWEB-0243
国际标识:
2021-045H
轨道中心:
EARTH
卫星名称:
一网星座-0243星
卫星全名:
一网星座-0243星 (ONEWEB-0243 )
卫星状态:
在轨 (已飞行1662 天)
发射日期:
2021-05-28 UTC
国别 :
英国 (GB)
星等 :
--
轨道信息
数据来源 国际轨道数据
星历时间: 2025-12-15T06:19:23+0800
20小时前
查看轨道信息
半长轴: 7579.907km
偏心率: 0.0002213
轨道倾角: 87.900°
近地点辐角 74.166°
升交点赤经 295.991°
平近点角 285.972°
近地点: 1200.094km
远地点: 1203.45km
周期: 109.460分钟
每日圈数: 13.155488
详细信息
平衡模式:
三轴稳定
覆盖范围:
全球
运营商:
一网卫星公司
运营商所在国:
英国
制造商(研发单位):
一网卫星公司
制造商所在国:
英国
使用方式:
暂无
卫星简介
OneWeb卫星网络由648颗重约125公斤的微型卫星组成,运行在1200公里的轨道上。 每颗卫星都能够提供至少每秒8千兆位的吞吐量,以使用其高吞吐量的Ku频段有效载荷为家庭和移动平台提供互联网接入。该卫星仍在工作。
2D轨道图
3D轨道图
轨道高度分析图
轨道倾角分析图
轨道综合分析图
查看轨道综合分析图